Penn Yan, NY

12:55 AM EDT on August 26, 2016 (GMT -0400)
Penn Yan

Weather History for KPEO - March, 2013

Change the Weather History Date:

Wednesday, March 20, 2013

  Actual Average (KITH) Record (KITH)
Temperature  
Mean Temperature 28 °F -  
Max Temperature 33 °F 42 °F 74 °F (2012)
Min Temperature 24 °F 22 °F -3 °F (1993)
Degree Days  
Heating Degree Days 37    
Moisture  
Dew Point 17 °F    
Average Humidity 67    
Maximum Humidity 81    
Minimum Humidity 50    
Precipitation  
Precipitation 0.00 in - - ()
Sea Level Pressure  
Sea Level Pressure 29.82 in    
Wind  
Wind Speed 11 mph (WSW)    
Max Wind Speed 22 mph    
Max Gust Speed 29 mph    
Visibility 8 miles    
Events Snow    
Averages and records for this station are not official NWS values.
T = Trace of Precipitation, MM = Missing Value Source: NWS Daily Summary

Daily Weather History Graph

Daily Weather History Graph

Search for Another Location

Airport or City:

Trip Planner

Search our weather history database for the weather conditions in past years. The results will help you decide how hot, cold, wet, or windy it might be!

Date:

Astronomy

Mar. 20, 2013 Rise Set
Actual Time 7:11 AM EDT 7:20 PM EDT
Civil Twilight 6:42 AM EDT 7:48 PM EDT
Nautical Twilight 6:10 AM EDT 8:21 PM EDT
Astronomical Twilight 5:36 AM EDT 8:55 PM EDT
Moon 12:47 PM EDT (3/20) 2:56 AM EDT (3/20)
Length of Visible Light 13h 05m
Length of Day
12h 09m
First Quarter, 59% of the Moon is Illuminated
Mar 20
First Quarter
Mar 27
Full
Apr 3
Last Quarter
Apr 10
New
Apr 18
First Quarter

Hourly Weather History & Observations

Time (EDT) Temp. Windchill Dew Point Humidity Pressure Visibility Wind Dir Wind Speed Gust Speed Precip Events Conditions
12:53 AM 27.0 °F 17.3 °F 17.1 °F 66% 29.83 in 10.0 mi WSW 10.4 mph - 0.00 in   Overcast
1:43 AM 26.6 °F 17.5 °F 17.6 °F 69% 29.81 in 7.0 mi West 9.2 mph - 0.00 in Snow Light Snow
1:53 AM 25.0 °F 17.1 °F 19.0 °F 78% 29.85 in 1.8 mi West 6.9 mph - 0.00 in Snow Light Snow
2:18 AM 24.8 °F 14.6 °F 19.4 °F 80% 29.81 in 2.5 mi West 10.4 mph 21.9 mph 0.00 in Snow Light Snow
2:26 AM 24.8 °F 14.0 °F 17.6 °F 74% 29.81 in 4.0 mi West 11.5 mph 21.9 mph 0.00 in Snow Light Snow
2:53 AM 24.1 °F 18.2 °F 19.0 °F 81% 29.85 in 7.0 mi SW 4.6 mph - 0.00 in   Overcast
3:07 AM 24.8 °F 19.1 °F 19.4 °F 80% 29.80 in 10.0 mi SW 4.6 mph - N/A   Overcast
3:53 AM 25.0 °F 14.2 °F 16.0 °F 69% 29.83 in 10.0 mi West 11.5 mph 19.6 mph N/A   Overcast
4:09 AM 24.8 °F 14.6 °F 15.8 °F 69% 29.79 in 10.0 mi West 10.4 mph - N/A   Overcast
4:18 AM 24.8 °F 12.9 °F 15.8 °F 69% 29.79 in 10.0 mi WSW 13.8 mph 19.6 mph N/A   Overcast
4:53 AM 24.1 °F 13.1 °F 16.0 °F 71% 29.83 in 10.0 mi West 11.5 mph - N/A   Overcast
5:53 AM 24.1 °F 11.0 °F 16.0 °F 71% 29.83 in 10.0 mi WSW 16.1 mph - N/A   Overcast
6:42 AM 24.8 °F 13.4 °F 15.8 °F 69% 29.79 in 10.0 mi WSW 12.7 mph - N/A   Mostly Cloudy
6:49 AM 24.8 °F 14.6 °F 15.8 °F 69% 29.80 in 10.0 mi WSW 10.4 mph - N/A   Mostly Cloudy
6:53 AM 24.1 °F 12.0 °F 16.0 °F 71% 29.84 in 10.0 mi WSW 13.8 mph - N/A   Mostly Cloudy
7:53 AM 24.1 °F 13.7 °F 16.0 °F 71% 29.85 in 10.0 mi SW 10.4 mph - N/A   Scattered Clouds
8:23 AM 24.8 °F 16.9 °F 17.6 °F 74% 29.81 in 10.0 mi SSW 6.9 mph - N/A   Mostly Cloudy
8:53 AM 27.0 °F 15.6 °F 18.0 °F 69% 29.84 in 10.0 mi WSW 13.8 mph - N/A   Mostly Cloudy
9:53 AM 28.0 °F 14.6 °F 17.1 °F 63% 29.83 in 10.0 mi WSW 20.7 mph 26.5 mph N/A   Scattered Clouds
10:53 AM 30.0 °F 20.0 °F 18.0 °F 61% 29.83 in 10.0 mi WSW 12.7 mph 24.2 mph N/A   Overcast
11:53 AM 30.9 °F 23.5 °F 16.0 °F 54% 29.82 in 10.0 mi West 8.1 mph 19.6 mph N/A   Overcast
12:53 PM 32.0 °F 21.2 °F 15.1 °F 50% 29.82 in 10.0 mi West 16.1 mph 23.0 mph N/A   Overcast
1:53 PM 32.0 °F 22.1 °F 17.1 °F 54% 29.81 in 10.0 mi SW 13.8 mph - N/A   Overcast
2:53 PM 30.9 °F 19.8 °F 21.0 °F 67% 29.81 in 10.0 mi WSW 16.1 mph 24.2 mph 0.00 in   Overcast
3:05 PM 28.4 °F 19.1 °F 23.0 °F 80% 29.78 in 0.8 mi West 10.4 mph 25.3 mph 0.00 in Snow Light Snow
3:14 PM 30.2 °F 22.6 °F 24.8 °F 80% 29.77 in 2.0 mi WSW 8.1 mph - 0.00 in Snow Light Snow
3:21 PM 30.2 °F 24.3 °F 21.2 °F 69% 29.77 in 9.0 mi West 5.8 mph - 0.00 in Snow Light Snow
3:46 PM 30.2 °F 19.3 °F 23.0 °F 75% 29.77 in 2.5 mi West 15.0 mph 21.9 mph 0.00 in Snow Light Snow
3:53 PM 30.9 °F 21.7 °F 21.0 °F 67% 29.81 in 9.0 mi WSW 11.5 mph 20.7 mph 0.00 in   Mostly Cloudy
4:53 PM 30.9 °F 20.2 °F 16.0 °F 54% 29.81 in 10.0 mi West 15.0 mph 21.9 mph N/A   Overcast
5:53 PM 30.9 °F 18.1 °F 15.1 °F 52% 29.81 in 10.0 mi WSW 21.9 mph 28.8 mph N/A   Scattered Clouds
6:53 PM 30.0 °F 20.5 °F 14.0 °F 51% 29.83 in 10.0 mi West 11.5 mph 19.6 mph N/A   Scattered Clouds
7:53 PM 28.0 °F 18.1 °F 12.9 °F 53% 29.84 in 10.0 mi West 11.5 mph - N/A   Clear
8:53 PM 27.0 °F 16.7 °F 12.0 °F 53% 29.84 in 10.0 mi West 11.5 mph - N/A   Clear
9:53 PM 25.0 °F 16.3 °F 12.9 °F 60% 29.85 in 10.0 mi WSW 8.1 mph - N/A   Scattered Clouds
10:53 PM 26.1 °F 17.6 °F 14.0 °F 60% 29.85 in 10.0 mi SW 8.1 mph - N/A   Overcast
11:53 PM 25.0 °F 15.5 °F 14.0 °F 63% 29.84 in 10.0 mi SSW 9.2 mph - N/A   Overcast